Regional Weather Roundup
Issued by NWS

Home | Current Version | Previous Version | Text Only | Print | Product List | Glossary Off
Versions: 1 2 3 4 5 6 7 8 9 10 11 12 13 14 15 16 17 18 19 20 21 22 23 24 25 26 27 28 29 30 31 32 33 34 35 36 37 38 39 40 41 42 43 44 45 46 47 48 49 50

288
ASUS43 KMPX 181010
RWRMN
WEATHER ROUNDUP FOR MINNESOTA
NATIONAL WEATHER SERVICE TWIN CITIES/CHANHASSEN MN
500 AM CDT FRI AUG 18 2017


NOTE: "FAIR" INDICATES FEW OR NO CLOUDS BELOW 12,000 FEET WITH NO
SIGNIFICANT WEATHER AND/OR OBSTRUCTIONS TO VISIBILITY. N/A MEANS
CURRENT SKY AND/OR WEATHER CONDITIONS ARE NOT AVAILABLE.

MNZ060>063-068>070-181100-
   Twin Cities Metro

CITY           SKY/WX    TMP DP  RH WIND       PRES   REMARKS
TWIN CITIES    CLEAR     61  58  90 CALM      29.87R
ST PAUL        CLEAR     59  58  96 NW3       29.87R
CRYSTAL        CLEAR     59  55  87 CALM      29.86R
BLAINE         CLEAR     61  61 100 CALM      29.87R
LAKEVILLE      CLEAR     57  57 100 CALM      29.88R
EDEN PRAIRIE   CLOUDY    61  58  90 NW3       29.86S
SOUTH ST PAUL  CLEAR     61  60  96 CALM      29.86R
LAKE ELMO      FAIR      55  55 100 W3        29.87S
$$
MNZ001>005-007-008-013>017-022>024-027-028-181100-
   Northwest Minnesota

CITY           SKY/WX    TMP DP  RH WIND       PRES   REMARKS
BEMIDJI        PTCLDY    52  52  98 W5        29.86S
HALLOCK        CLEAR     52  48  87 SE5       29.82F
ROSEAU         CLEAR     54  48  82 CALM      29.83S
WARROAD        PTCLDY    54  50  87 W3        29.84S
THIEF RVR FALL CLEAR     55  53  93 S3        29.86S
CROOKSTON      CLEAR     55  54  94 S6        29.84F
FOSSTON        CLOUDY    52  52 100 S3        29.87S FOG
DETROIT LAKES  CLOUDY    61  59  94 CALM      29.89S
MOORHEAD       PTCLDY    61  57  88 SW5       29.87F
PARK RAPIDS    CLOUDY    56  54  93 W3        29.87S
MAHNOMEN       FAIR      56  55  95 S3        29.87S
$$
MNZ006-009>011-018-025>026-181100-
   North Central Minnesota

CITY           SKY/WX    TMP DP  RH WIND       PRES   REMARKS
BAUDETTE       FOG       51  51 100 CALM      29.82F VSB 1/4
FLAG ISLAND    CLEAR     63  54  72 CALM      29.81R
INTL FALLS     FOG       48  47  96 CALM      29.83S VSB 1/4
WASKISH        CLEAR     52  52 100 CALM      29.84S
BIG FORK       FOG       46  45  93 CALM      29.84F VSB 3/4
LONGVILLE      FOG       54  52  94 CALM      29.85S VSB 3/4
GRAND RAPIDS   CLEAR     55  55 100 CALM      29.86S FOG
CRANE LAKE     MOCLDY    46  46 100 CALM      29.85S FOG
ORR            MOCLDY    52  48  87 CALM      29.81F FOG
COOK           FOG       48  48 100 CALM      29.84F VSB 1/2
WALKER         FAIR      55  55  99 CALM      29.86S
$$
MNZ012-019>021-037-181100-
   Northeast Minnesota

CITY           SKY/WX    TMP DP  RH WIND       PRES   REMARKS
DULUTH         CLOUDY    56  56 100 NW9       29.82S FOG
ELY            MOCLDY    57  55  94 NW6       29.82R
HIBBING        CLEAR     49  49 100 CALM      29.83F
EVELETH        FOG       53  50  91 CALM      29.84S VSB 3/4
DULUTH HARBOR  PTCLDY    61  57  88 W5        29.82S
TWO HARBORS    CLEAR     61  55  82 CALM      29.78F
SILVER BAY     PTCLDY    61  57  88 CALM      29.77
GRAND MARAIS     N/A     63  58  83 W3        29.75R
G MARAIS ARPRT CLOUDY    57  52  82 NW7       29.78R
$$
MNZ029>031-032-039>041-046>048-054>057-064-181100-
   West Central Minnesota

CITY           SKY/WX    TMP DP  RH WIND       PRES   REMARKS
FERGUS FALLS   CLOUDY    61  61 100 CALM      29.88R
WHEATON        CLOUDY    61  57  88 CALM      29.89R
MORRIS         CLOUDY    61  59  94 CALM      29.86S
ALEXANDRIA     CLOUDY    61  59  93 NW3       29.90R
ELBOW LAKE     MOCLDY    62  61  96 E3        29.88S
WADENA         CLOUDY    57  57 100 W3        29.87S
GLENWOOD       CLOUDY    61  61 100 CALM      29.88S
APPLETON       CLOUDY    63  59  88 SW5       29.87R
BENSON         CLOUDY    61  57  88 CALM      29.89S
ORTONVILLE     CLOUDY    63  57  82 MISG      29.89R
MADISON        CLOUDY    64  64 100 CALM      29.89R
WILLMAR        FAIR      61  61 100 CALM      29.88F
$$
MNZ033>034-036-042>043-049>051-058-059-181100-
   Central Minnesota

CITY           SKY/WX    TMP DP  RH WIND       PRES   REMARKS
ST CLOUD       PTCLDY    54  54 100 CALM      29.87S
SAUK CENTRE    FAIR      57  57  99 CALM      29.88S
PAYNESVILLE    CLOUDY    56  56 100 W3        29.89S FOG
AITKIN         CLEAR     55  54  94 CALM      29.84S
PINE RIVER     CLOUDY    50  50 100 MISG      29.90R FOG
BRAINERD       CLEAR     55  54  96 CALM      29.86F FOG
STAPLES        CLOUDY    54  54 100 CALM      29.87S
LONG PRAIRIE   FAIR      55  55 100 CALM      29.88S FOG
LITTLE FALLS   CLOUDY    54  52  94 CALM      29.87S FOG
LITCHFIELD     CLOUDY    63  61  94 CALM      29.89S
BUFFALO        CLOUDY    59  57  91 CALM      29.89R
MAPLE LAKE     CLOUDY    58  57  98 CALM      29.89R
HUTCHINSON     PTCLDY    58  58 100 CALM      29.89S FOG
$$
MNZ037-044-045-052-053-181100-
   East Central Minnesota

CITY           SKY/WX    TMP DP  RH WIND       PRES   REMARKS
PRINCETON      CLEAR     57  55  94 CALM      29.87R
MORA           CLEAR     54  52  94 CALM      29.87S
RUSH CITY      PTCLDY    55  54  94 CALM      29.85S
MOOSE LAKE     CLEAR     55  54  94 NW5       29.83R
HINCKLEY       FAIR      55  55 100 W3        29.84S
CLOQUET        CLEAR     54  52  94 NW3       29.83S
MCGREGOR       CLEAR     55  54  94 CALM      29.86R
$$
MNZ071>073-080-081-089-090-097-098-181100-
   Southwest Minnesota

CITY           SKY/WX    TMP DP  RH WIND       PRES   REMARKS
MONTEVIDEO     CLOUDY    61  61 100 CALM      29.88R
GRANITE FALLS  CLOUDY    62  61  97 S7        29.89R
CANBY          LGT RAIN  65  58  78 CALM      29.91R
MARSHALL       LGT RAIN  63  59  87 SW9       29.91R
REDWOOD FALLS  CLOUDY    61  57  87 S3        29.87F
OLIVIA         CLOUDY    61  59  94 CALM      29.87S
PIPESTONE      RAIN      63  57  82 W5        29.93R
WINDOM         LGT RAIN  61  59  94 SW5       29.94R
WORTHINGTON    CLOUDY    62  59  90 N7        29.90F
JACKSON        RAIN      61  59  94 CALM      29.93R
TRACY          RAIN      64  60  85 S8        29.92R
SLAYTON        LGT RAIN  60  55  84 CALM      29.93R
$$
MNZ065>067-074>077-082>085-091>093-181100-
   South Central Minnesota

CITY           SKY/WX    TMP DP  RH WIND       PRES   REMARKS
MANKATO        MOCLDY    59  57  94 W3        29.89S FOG
NEW ULM        CLOUDY    59  57  94 NE3       29.87F
ST JAMES       CLOUDY    61  59  94 S6        29.91R
FAIRMONT       CLOUDY    61  60  97 CALM      29.91R
GLENCOE        CLOUDY    60  60 100 SW3       29.88S
FARIBAULT      CLEAR     59  57  94 CALM      29.89F
OWATONNA       FOG       55  54  94 CALM      29.89S VSB 1/4
WASECA         FOG       54  54 100 CALM      29.89F VSB 1/2
ALBERT LEA     PTCLDY    63  61  94 CALM      29.89F FOG
$$
MNZ078>079-086>088-094>096-181100-
   Southeast Minnesota

CITY           SKY/WX    TMP DP  RH WIND       PRES   REMARKS
ROCHESTER      CLEAR     57  57 100 NW8       29.89S
RED WING       CLEAR     59  55  88 CALM      29.85S FOG
STANTON        CLEAR     58  56  93 CALM      29.86S
DODGE CENTER   CLEAR     59  57  94 NW5       29.88S
WINONA         CLEAR     63  57  82 NW6       29.86R
AUSTIN         CLEAR     59  57  94 NW5       29.89R
PRESTON        CLEAR     58  56  91 NW6       29.88F
$$
ABBREVIATIONS USED IN REMARKS
   TC - TEMPERATURES IN CELSIUS
  WCI - WIND CHILL INDEX
   HX - HEAT INDEX
  VSB - VISIBILITY
$$




USA.gov is the U.S. government's official web portal to all federal, state and local government web resources and services.